Вернуться в каталог

STARLINK-11568

АктивенСвязьVLEO
NORAD 63307·PAYLOAD·🇺🇸 United States

Запущен Mar 18, 2025 с Cape Canaveral Space Force Station

Loading…

Ближайшие Пролёты (ближайшие 24 часа)

TLE

СвежийSource: CelesTrak SupGP

Эпоха: Sep 14, 2026, 22:39 UTC

1 63307C 25057A   26257.94423611  .00005592  00000+0  43431-4 0  2576
2 63307  43.0005 203.4367 0001568 251.0920 199.4118 15.70838393    18

Отслеживайте STARLINK-11568 в реальном времени с AllMySat

Download on the App Store